User: anonymous   Login
Location: Unspecified
(0.0000°N, 0.0000°E)
Time: 11:15:37
(UTC+01:00)
Language:

ARIANE 5 R/B - Orbit

View from above orbital plane
View from above orbital plane
View from above satellite
View from above satellite

Ground track
Ground track

The orbit data is extracted from the following two-line orbital elements,

1 27387U 02009B   15024.90130914  .00000064  00000-0  36688-4 0  3750
2 27387 098.3463 345.1408 0031780 224.8715 197.0753 14.35796534676081
Epoch (UTC): 24 January 2015 21:37:53
Eccentricity: 0.0031780
inclination: 98.3463°
perigee height: 750 km
apogee height: 795 km
right ascension of ascending node: 345.1408°
argument of perigee: 224.8715°
revolutions per day: 14.35796534
mean anomaly at epoch: 197.0753°
orbit number at epoch: 67608

The dashed part of the orbit path shows where the satellite is in the earth's shadow,  

DLR